Regional Weather Roundup
Issued by NWS Burlington, VT

Home | Current Version | Previous Version | Text Only | Print | Product List | Glossary On
Versions: 1 2 3 4 5 6 7 8 9 10 11 12 13 14 15 16 17 18 19 20 21 22 23 24 25 26 27 28 29 30 31 32 33 34 35 36 37 38 39 40 41 42 43 44 45 46 47
000
ASUS41 KBTV 010610
RWRBTV
VERMONT REGIONAL WEATHER ROUNDUP
NATIONAL WEATHER SERVICE BURLINGTON VT
200 AM EDT THU SEP 01 2016

NOTE: "FAIR" INDICATES FEW OR NO CLOUDS BELOW 12,000 FEET WITH NO
SIGNIFICANT WEATHER AND/OR OBSTRUCTIONS TO VISIBILITY.

* THESE REPORTS ARE NOT UNDER NWS QUALITY CONTROL AND/OR DO NOT
  REPORT WEATHER SUCH AS PRECIPITATION AND FOG.

VTZ001>019-010700-
_____VERMONT_____


CITY           SKY/WX    TMP DP  RH WIND       PRES   REMARKS
BURLINGTON     CLOUDY    71  60  68 NW3       29.85S
6HR MIN TEMP:  69; 6HR MAX TEMP:  73;

MONTPELIER     MOCLDY    62  61  96 CALM      29.90S
6HR MIN TEMP:  60; 6HR MAX TEMP:  70;

MORRISVILLE    CLOUDY    63  61  93 S3        29.87F
6HR MIN TEMP:  62; 6HR MAX TEMP:  68; 6HR PCP:  0.07;

ST. JOHNSBURY*   N/A     65  62  90 MISG      29.83F
6HR MIN TEMP:  65; 6HR MAX TEMP:  70;

LYNDONVILLE*   FAIR      61  60  97 CALM      29.88S
6HR MIN TEMP:  61; 6HR MAX TEMP:  68;

MIDDLEBURY*    CLOUDY    67  67 100 CALM      29.86S
6HR MIN TEMP:  67; 6HR MAX TEMP:  72; 6HR PCP:  0.01;

RUTLAND*       CLOUDY    68  63  84 E3        29.87S
6HR MIN TEMP:  67; 6HR MAX TEMP:  72;

SPRINGFIELD    FAIR      61  59  93 CALM      29.86F
6HR MIN TEMP:  61; 6HR MAX TEMP:  70;

HIGHGATE*      CLOUDY    64  63  96 CALM      29.85F
6HR MIN TEMP:  64; 6HR MAX TEMP:  67;

NEWPORT*       CLOUDY    62  62  99 CALM      29.86S FOG
6HR MIN TEMP:  61; 6HR MAX TEMP:  64;

BENNINGTON     MOCLDY    65  62  90 CALM      29.88F
6HR MIN TEMP:  65; 6HR MAX TEMP:  71;


_____LAKE CHAMPLAIN_____


CITY           SKY/WX    TMP DP  RH WIND       PRES   REMARKS
BURTON ISLAND*   N/A     70  63  78 NW1         N/A
COLCHESTER RF*   N/A     72  63  73 NW13        N/A
DIAMOND ISL*     N/A     70  66  88 NE2         N/A

$$

NYZ007-026>031-035-052-083-087-010700-
_____NORTHERN NEW YORK_____


CITY           SKY/WX    TMP DP  RH WIND       PRES   REMARKS
PLATTSBURGH    CLOUDY    69  58  67 NW6       29.85S
6HR MIN TEMP:  64; 6HR MAX TEMP:  72;

SARANAC LAKE   CLOUDY    58  56  93 CALM      29.91S FOG
6HR MIN TEMP:  58; 6HR MAX TEMP:  67; 6HR PCP:  0.03;

MASSENA        CLOUDY    64  56  75 NW3       29.90R
6HR MIN TEMP:  64; 6HR MAX TEMP:  67;

OGDENSBURG*    PTCLDY    63  55  77 N5        29.90S
POTSDAM*       MOCLDY    61  61 100 CALM      29.90F
WATERTOWN      MOCLDY    60  58  92 CALM      29.90S
6HR MIN TEMP:  59; 6HR MAX TEMP:  70;

FT DRUM        FAIR      60  58  92 N5        29.90F
6HR MIN TEMP:  60; 6HR MAX TEMP:  69; 6HR PCP:  0.01;

ALBANY         CLOUDY    69  63  81 CALM      29.86F
6HR MIN TEMP:  67; 6HR MAX TEMP:  74;

GLENS FALLS    FAIR      67  63  87 NE3       29.85F
6HR MIN TEMP:  66; 6HR MAX TEMP:  73;


$$
NHZ002-005-011-010700-
_____NEW HAMPSHIRE_____


CITY           SKY/WX    TMP DP  RH WIND       PRES   REMARKS
LEBANON        FAIR      63  60  90 CALM      29.85F
6HR MIN TEMP:  62; 6HR MAX TEMP:  71;

KEENE          FAIR      66  64  93 CALM      29.85F
6HR MIN TEMP:  66; 6HR MAX TEMP:  70;

MT WASHINGTON  LGT RAIN  50  50 100 W29G35      N/A  VSB 0
6HR MIN TEMP:  49; 6HR MAX TEMP:  52; 6HR PCP:  0.02;

PLYMOUTH       FAIR      60  59  96 CALM      29.84S
6HR MIN TEMP:  60; 6HR MAX TEMP:  68;

WHITEFIELD     MOCLDY    64  60  87 CALM      29.85F
6HR MIN TEMP:  63; 6HR MAX TEMP:  69; 6HR PCP:  0.16;


$$

_____REGIONAL QUEBEC LOCATIONS_____


CITY           SKY/WX    TMP DP  RH WIND       PRES   REMARKS
MONTREAL       PTCLDY    63  55  77 W13       29.86S
QUEBEC CITY    MOCLDY    63  59  88 NW7       29.80S
SHERBROOKE     CLOUDY    61  61 100 CALM      29.83F

_____REGIONAL ONTARIO LOCATIONS_____


CITY           SKY/WX    TMP DP  RH WIND       PRES   REMARKS
OTTAWA         CLEAR     59  52  77 NW7       29.91S

______KEY______
VSB  - VISIBILITY IN MILES
WCI  - WIND CHILL INDEX
HX   - HEAT INDEX
$$
NNNN




USA.gov is the U.S. government's official web portal to all federal, state and local government web resources and services.